Year,Month,Day,Hour,Minute,Value (Times are PST for insolation in W/m^2)
2013,02,01,00,00,0.00
2013,02,01,00,01,0.00
2013,02,01,00,02,0.00
2013,02,01,00,03,0.00
2013,02,01,00,04,0.00
2013,02,01,00,05,0.00
2013,02,01,00,06,0.00
2013,02,01,00,07,0.00
2013,02,01,00,08,0.00
2013,02,01,00,09,0.00
2013,02,01,00,10,0.00
2013,02,01,00,11,0.00
2013,02,01,00,12,0.00
2013,02,01,00,13,0.00
2013,02,01,00,14,0.00
2013,02,01,00,15,0.00
2013,02,01,00,16,0.00
2013,02,01,00,17,0.00
2013,02,01,00,18,0.00
2013,02,01,00,19,0.00
2013,02,01,00,20,0.00
2013,02,01,00,21,0.00
2013,02,01,00,22,0.00
2013,02,01,00,23,0.00
2013,02,01,00,24,0.00
2013,02,01,00,25,0.00
2013,02,01,00,26,0.00
2013,02,01,00,27,0.00
2013,02,01,00,28,0.00
2013,02,01,00,29,0.00
2013,02,01,00,30,0.00
2013,02,01,00,31,0.00
2013,02,01,00,32,0.00
2013,02,01,00,33,0.00
2013,02,01,00,34,0.00
2013,02,01,00,35,0.00
2013,02,01,00,36,0.00
2013,02,01,00,37,0.00
2013,02,01,00,38,0.00
2013,02,01,00,39,0.00
2013,02,01,00,40,0.00
2013,02,01,00,41,0.00
2013,02,01,00,42,0.00
2013,02,01,00,43,0.00
2013,02,01,00,44,0.00
2013,02,01,00,45,0.00
2013,02,01,00,46,0.00
2013,02,01,00,47,0.00
2013,02,01,00,48,0.00
2013,02,01,00,49,0.00
2013,02,01,00,50,0.00
2013,02,01,00,51,0.00
2013,02,01,00,52,0.00
2013,02,01,00,53,0.00
2013,02,01,00,54,0.00
2013,02,01,00,55,0.00
2013,02,01,00,56,0.00
2013,02,01,00,57,0.00
2013,02,01,00,58,0.00
2013,02,01,00,59,0.00
2013,02,01,01,00,0.00
2013,02,01,01,01,0.00
2013,02,01,01,02,0.00
2013,02,01,01,03,0.00
2013,02,01,01,04,0.00
2013,02,01,01,05,0.00
2013,02,01,01,06,0.00
2013,02,01,01,07,0.00
2013,02,01,01,08,0.00
2013,02,01,01,09,0.00
2013,02,01,01,10,0.00
2013,02,01,01,11,0.00
2013,02,01,01,12,0.00
2013,02,01,01,13,0.00
2013,02,01,01,14,0.00
2013,02,01,01,15,0.00
2013,02,01,01,16,0.00
2013,02,01,01,17,0.00
2013,02,01,01,18,0.00
2013,02,01,01,19,0.00
2013,02,01,01,20,0.00
2013,02,01,01,21,0.00
2013,02,01,01,22,0.00
2013,02,01,01,23,0.00
2013,02,01,01,24,0.00
2013,02,01,01,25,0.00
2013,02,01,01,26,0.00
2013,02,01,01,27,0.00
2013,02,01,01,28,0.00
2013,02,01,01,29,0.00
2013,02,01,01,30,0.00
2013,02,01,01,31,0.00
2013,02,01,01,32,0.00
2013,02,01,01,33,0.00
2013,02,01,01,34,0.00
2013,02,01,01,35,0.00
2013,02,01,01,36,0.00
2013,02,01,01,37,0.00
2013,02,01,01,38,0.00
2013,02,01,01,39,0.00
2013,02,01,01,40,0.00
2013,02,01,01,41,0.00
2013,02,01,01,42,0.00
2013,02,01,01,43,0.00
2013,02,01,01,44,0.00
2013,02,01,01,45,0.00
2013,02,01,01,46,0.00
2013,02,01,01,47,0.00
2013,02,01,01,48,0.00
2013,02,01,01,49,0.00
2013,02,01,01,50,0.00
2013,02,01,01,51,0.00
2013,02,01,01,52,0.00
2013,02,01,01,53,0.00
2013,02,01,01,54,0.00
2013,02,01,01,55,0.00
2013,02,01,01,56,0.00
2013,02,01,01,57,0.00
2013,02,01,01,58,0.00
2013,02,01,01,59,0.00
2013,02,01,02,00,0.00
2013,02,01,02,01,0.00
2013,02,01,02,02,0.00
2013,02,01,02,03,0.00
2013,02,01,02,04,0.00
2013,02,01,02,05,0.00
2013,02,01,02,06,0.00
2013,02,01,02,07,0.00
2013,02,01,02,08,0.00
2013,02,01,02,09,0.00
2013,02,01,02,10,0.00
2013,02,01,02,11,0.00
2013,02,01,02,12,0.00
2013,02,01,02,13,0.00
2013,02,01,02,14,0.00
2013,02,01,02,15,0.00
2013,02,01,02,16,0.00
2013,02,01,02,17,0.00
2013,02,01,02,18,0.00
2013,02,01,02,19,0.00
2013,02,01,02,20,0.00
2013,02,01,02,21,0.00
2013,02,01,02,22,0.00
2013,02,01,02,23,0.00
2013,02,01,02,24,0.00
2013,02,01,02,25,0.00
2013,02,01,02,26,0.00
2013,02,01,02,27,0.00
2013,02,01,02,28,0.00
2013,02,01,02,29,0.00
2013,02,01,02,30,0.00
2013,02,01,02,31,0.00
2013,02,01,02,32,0.00
2013,02,01,02,33,0.00
2013,02,01,02,34,0.00
2013,02,01,02,35,0.00
2013,02,01,02,36,0.00
2013,02,01,02,37,0.00
2013,02,01,02,38,0.00
2013,02,01,02,39,0.00
2013,02,01,02,40,0.00
2013,02,01,02,41,0.00
2013,02,01,02,42,0.00
2013,02,01,02,43,0.00
2013,02,01,02,44,0.00
2013,02,01,02,45,0.00
2013,02,01,02,46,0.00
2013,02,01,02,47,0.00
2013,02,01,02,48,0.00
2013,02,01,02,49,0.00
2013,02,01,02,50,0.00
2013,02,01,02,51,0.00
2013,02,01,02,52,0.00
2013,02,01,02,53,0.00
2013,02,01,02,54,0.00
2013,02,01,02,55,0.00
2013,02,01,02,56,0.00
2013,02,01,02,57,0.00
2013,02,01,02,58,0.00
2013,02,01,02,59,0.00
2013,02,01,03,00,0.00
2013,02,01,03,01,0.00
2013,02,01,03,02,0.00
2013,02,01,03,06,0.00
2013,02,01,03,07,0.00
2013,02,01,03,08,0.00
2013,02,01,03,09,0.00
2013,02,01,03,10,0.00
2013,02,01,03,11,0.00
2013,02,01,03,12,0.00
2013,02,01,03,13,0.00
2013,02,01,03,14,0.00
2013,02,01,03,15,0.00
2013,02,01,03,16,0.00
2013,02,01,03,17,0.00
2013,02,01,03,18,0.00
2013,02,01,03,19,0.00
2013,02,01,03,20,0.00
2013,02,01,03,21,0.00
2013,02,01,03,22,0.00
2013,02,01,03,23,0.00
2013,02,01,03,24,0.00
2013,02,01,03,25,0.00
2013,02,01,03,26,0.00
2013,02,01,03,27,0.00
2013,02,01,03,28,0.00
2013,02,01,03,29,0.00
2013,02,01,03,30,0.00
2013,02,01,03,31,0.00
2013,02,01,03,32,0.00
2013,02,01,03,33,0.00
2013,02,01,03,34,0.00
2013,02,01,03,35,0.00
2013,02,01,03,36,0.00
2013,02,01,03,37,0.00
2013,02,01,03,38,0.00
2013,02,01,03,39,0.00
2013,02,01,03,40,0.00
2013,02,01,03,41,0.00
2013,02,01,03,42,0.00
2013,02,01,03,43,0.00
2013,02,01,03,44,0.00
2013,02,01,03,45,0.00
2013,02,01,03,46,0.00
2013,02,01,03,47,0.00
2013,02,01,03,48,0.00
2013,02,01,03,49,0.00
2013,02,01,03,50,0.00
2013,02,01,03,51,0.00
2013,02,01,03,52,0.00
2013,02,01,03,53,0.00
2013,02,01,03,54,0.00
2013,02,01,03,55,0.00
2013,02,01,03,56,0.00
2013,02,01,03,57,0.00
2013,02,01,03,58,0.00
2013,02,01,03,59,0.00
2013,02,01,04,00,0.00
2013,02,01,04,01,0.00
2013,02,01,04,02,0.00
2013,02,01,04,03,0.00
2013,02,01,04,04,0.00
2013,02,01,04,05,0.00
2013,02,01,04,06,0.00
2013,02,01,04,07,0.00
2013,02,01,04,08,0.00
2013,02,01,04,09,0.00
2013,02,01,04,10,0.00
2013,02,01,04,11,0.00
2013,02,01,04,12,0.00
2013,02,01,04,13,0.00
2013,02,01,04,14,0.00
2013,02,01,04,15,0.00
2013,02,01,04,16,0.00
2013,02,01,04,17,0.00
2013,02,01,04,18,0.00
2013,02,01,04,19,0.00
2013,02,01,04,20,0.00
2013,02,01,04,21,0.00
2013,02,01,04,22,0.00
2013,02,01,04,23,0.00
2013,02,01,04,24,0.00
2013,02,01,04,25,0.00
2013,02,01,04,26,0.00
2013,02,01,04,27,0.00
2013,02,01,04,28,0.00
2013,02,01,04,29,0.00
2013,02,01,04,30,0.00
2013,02,01,04,31,0.00
2013,02,01,04,32,0.00
2013,02,01,04,33,0.00
2013,02,01,04,34,0.00
2013,02,01,04,35,0.00
2013,02,01,04,36,0.00
2013,02,01,04,37,0.00
2013,02,01,04,38,0.00
2013,02,01,04,39,0.00
2013,02,01,04,40,0.00
2013,02,01,04,41,0.00
2013,02,01,04,42,0.00
2013,02,01,04,43,0.00
2013,02,01,04,44,0.00
2013,02,01,04,45,0.00
2013,02,01,04,46,0.00
2013,02,01,04,47,0.00
2013,02,01,04,48,0.00
2013,02,01,04,49,0.00
2013,02,01,04,50,0.00
2013,02,01,04,51,0.00
2013,02,01,04,52,0.00
2013,02,01,04,53,0.00
2013,02,01,04,54,0.00
2013,02,01,04,55,0.00
2013,02,01,04,56,0.00
2013,02,01,04,57,0.00
2013,02,01,04,58,0.00
2013,02,01,04,59,0.00
2013,02,01,05,00,0.00
2013,02,01,05,01,0.00
2013,02,01,05,02,0.00
2013,02,01,05,03,0.00
2013,02,01,05,04,0.00
2013,02,01,05,05,0.00
2013,02,01,05,06,0.00
2013,02,01,05,07,0.00
2013,02,01,05,08,0.00
2013,02,01,05,09,0.00
2013,02,01,05,10,0.00
2013,02,01,05,11,0.00
2013,02,01,05,12,0.00
2013,02,01,05,13,0.00
2013,02,01,05,14,0.00
2013,02,01,05,15,0.00
2013,02,01,05,16,0.00
2013,02,01,05,17,0.00
2013,02,01,05,18,0.00
2013,02,01,05,19,0.00
2013,02,01,05,20,0.00
2013,02,01,05,21,0.00
2013,02,01,05,22,0.00
2013,02,01,05,23,0.00
2013,02,01,05,24,0.00
2013,02,01,05,25,0.00
2013,02,01,05,26,0.00
2013,02,01,05,27,0.00
2013,02,01,05,28,0.00
2013,02,01,05,29,0.00
2013,02,01,05,30,0.00
2013,02,01,05,31,0.00
2013,02,01,05,32,0.00
2013,02,01,05,33,0.00
2013,02,01,05,34,0.00
2013,02,01,05,35,0.00
2013,02,01,05,36,0.00
2013,02,01,05,37,0.00
2013,02,01,05,38,0.00
2013,02,01,05,39,0.00
2013,02,01,05,40,0.00
2013,02,01,05,41,0.00
2013,02,01,05,42,0.00
2013,02,01,05,43,0.00
2013,02,01,05,44,0.00
2013,02,01,05,45,0.00
2013,02,01,05,46,0.00
2013,02,01,05,47,0.00
2013,02,01,05,48,0.00
2013,02,01,05,49,0.00
2013,02,01,05,50,0.00
2013,02,01,05,51,0.00
2013,02,01,05,52,0.00
2013,02,01,05,53,0.00
2013,02,01,05,54,0.00
2013,02,01,05,55,0.00
2013,02,01,05,56,0.00
2013,02,01,05,57,0.00
2013,02,01,05,58,0.00
2013,02,01,05,59,0.00
2013,02,01,06,00,0.00
2013,02,01,06,01,0.00
2013,02,01,06,02,0.00
2013,02,01,06,03,0.00
2013,02,01,06,04,0.00
2013,02,01,06,05,0.00
2013,02,01,06,06,0.00
2013,02,01,06,07,0.00
2013,02,01,06,08,0.00
2013,02,01,06,09,0.00
2013,02,01,06,10,0.00
2013,02,01,06,11,0.00
2013,02,01,06,12,0.00
2013,02,01,06,13,0.00
2013,02,01,06,14,0.00
2013,02,01,06,15,0.00
2013,02,01,06,16,0.00
2013,02,01,06,17,0.00
2013,02,01,06,18,0.00
2013,02,01,06,19,0.00
2013,02,01,06,20,0.00
2013,02,01,06,21,0.00
2013,02,01,06,22,0.00
2013,02,01,06,23,0.00
2013,02,01,06,24,0.00
2013,02,01,06,25,0.00
2013,02,01,06,26,0.00
2013,02,01,06,27,0.00
2013,02,01,06,28,0.00
2013,02,01,06,29,0.00
2013,02,01,06,30,0.00
2013,02,01,06,31,0.00
2013,02,01,06,32,0.00
2013,02,01,06,33,0.00
2013,02,01,06,34,0.00
2013,02,01,06,35,0.00
2013,02,01,06,36,0.00
2013,02,01,06,37,0.00
2013,02,01,06,38,0.00
2013,02,01,06,39,0.00
2013,02,01,06,40,0.00
2013,02,01,06,41,0.00
2013,02,01,06,42,0.00
2013,02,01,06,43,0.00
2013,02,01,06,44,0.00
2013,02,01,06,45,0.00
2013,02,01,06,46,0.00
2013,02,01,06,47,0.00
2013,02,01,06,48,0.00
2013,02,01,06,49,0.00
2013,02,01,06,50,0.00
2013,02,01,06,51,0.00
2013,02,01,06,52,0.00
2013,02,01,06,53,0.00
2013,02,01,06,54,0.00
2013,02,01,06,55,0.00
2013,02,01,06,56,0.00
2013,02,01,06,57,0.00
2013,02,01,06,58,0.00
2013,02,01,06,59,0.00
2013,02,01,07,00,0.00
2013,02,01,07,01,0.00
2013,02,01,07,02,0.00
2013,02,01,07,03,0.00
2013,02,01,07,04,0.00
2013,02,01,07,05,0.00
2013,02,01,07,06,0.00
2013,02,01,07,07,0.00
2013,02,01,07,08,0.00
2013,02,01,07,09,0.00
2013,02,01,07,10,0.00
2013,02,01,07,11,0.00
2013,02,01,07,12,0.00
2013,02,01,07,13,0.00
2013,02,01,07,14,0.00
2013,02,01,07,15,0.00
2013,02,01,07,16,0.00
2013,02,01,07,17,0.00
2013,02,01,07,18,0.00
2013,02,01,07,19,0.00
2013,02,01,07,20,0.00
2013,02,01,07,21,0.00
2013,02,01,07,22,0.00
2013,02,01,07,23,0.00
2013,02,01,07,24,0.00
2013,02,01,07,25,0.00
2013,02,01,07,26,0.00
2013,02,01,07,27,0.00
2013,02,01,07,28,0.00
2013,02,01,07,29,0.00
2013,02,01,07,30,0.00
2013,02,01,07,31,0.00
2013,02,01,07,32,0.00
2013,02,01,07,33,0.00
2013,02,01,07,34,0.00
2013,02,01,07,35,0.00
2013,02,01,07,36,0.00
2013,02,01,07,37,0.00
2013,02,01,07,38,0.00
2013,02,01,07,39,0.00
2013,02,01,07,40,0.00
2013,02,01,07,41,0.00
2013,02,01,07,42,0.00
2013,02,01,07,43,0.00
2013,02,01,07,44,0.00
2013,02,01,07,45,0.00
2013,02,01,07,46,0.00
2013,02,01,07,47,0.00
2013,02,01,07,48,0.00
2013,02,01,07,49,0.00
2013,02,01,07,50,0.00
2013,02,01,07,51,0.00
2013,02,01,07,52,0.00
2013,02,01,07,53,0.00
2013,02,01,07,54,0.00
2013,02,01,07,55,0.00
2013,02,01,07,56,0.00
2013,02,01,07,57,0.00
2013,02,01,07,58,0.00
2013,02,01,07,59,0.00
2013,02,01,08,00,0.00
2013,02,01,08,01,0.00
2013,02,01,08,02,0.00
2013,02,01,08,03,0.00
2013,02,01,08,04,0.00
2013,02,01,08,05,0.00
2013,02,01,08,06,0.00
2013,02,01,08,07,0.00
2013,02,01,08,08,0.00
2013,02,01,08,09,0.00
2013,02,01,08,10,2.60
2013,02,01,08,11,5.00
2013,02,01,08,12,5.00
2013,02,01,08,13,5.00
2013,02,01,08,14,5.00
2013,02,01,08,15,5.00
2013,02,01,08,16,5.00
2013,02,01,08,17,5.00
2013,02,01,08,18,5.00
2013,02,01,08,19,7.00
2013,02,01,08,20,7.00
2013,02,01,08,21,7.00
2013,02,01,08,22,7.00
2013,02,01,08,23,7.00
2013,02,01,08,24,8.80
2013,02,01,08,25,9.00
2013,02,01,08,26,9.00
2013,02,01,08,27,9.00
2013,02,01,08,28,9.00
2013,02,01,08,29,9.00
2013,02,01,08,30,9.20
2013,02,01,08,31,11.00
2013,02,01,08,32,11.00
2013,02,01,08,33,11.00
2013,02,01,08,34,11.00
2013,02,01,08,35,11.00
2013,02,01,08,36,11.00
2013,02,01,08,37,11.20
2013,02,01,08,38,12.00
2013,02,01,08,39,12.00
2013,02,01,08,40,12.00
2013,02,01,08,41,12.00
2013,02,01,08,42,12.00
2013,02,01,08,43,12.00
2013,02,01,08,44,12.80
2013,02,01,08,45,14.00
2013,02,01,08,46,15.40
2013,02,01,08,47,16.00
2013,02,01,08,48,16.20
2013,02,01,08,49,18.00
2013,02,01,08,50,18.00
2013,02,01,08,51,18.50
2013,02,01,08,52,19.00
2013,02,01,08,53,19.00
2013,02,01,08,54,21.00
2013,02,01,08,55,21.00
2013,02,01,08,56,21.00
2013,02,01,08,57,22.20
2013,02,01,08,58,24.40
2013,02,01,08,59,25.00
2013,02,01,09,00,25.20
2013,02,01,09,01,26.00
2013,02,01,09,02,26.00
2013,02,01,09,03,26.00
2013,02,01,09,04,26.00
2013,02,01,09,05,27.90
2013,02,01,09,06,30.00
2013,02,01,09,07,30.00
2013,02,01,09,08,30.00
2013,02,01,09,09,31.20
2013,02,01,09,10,32.00
2013,02,01,09,11,32.20
2013,02,01,09,12,35.00
2013,02,01,09,13,35.60
2013,02,01,09,14,36.00
2013,02,01,09,15,35.00
2013,02,01,09,16,36.60
2013,02,01,09,17,36.90
2013,02,01,09,18,35.00
2013,02,01,09,19,34.20
2013,02,01,09,20,33.00
2013,02,01,09,21,32.30
2013,02,01,09,22,32.00
2013,02,01,09,23,33.20
2013,02,01,09,24,35.00
2013,02,01,09,25,35.00
2013,02,01,09,26,36.10
2013,02,01,09,27,37.00
2013,02,01,09,28,37.00
2013,02,01,09,29,36.70
2013,02,01,09,30,34.50
2013,02,01,09,31,32.60
2013,02,01,09,32,32.00
2013,02,01,09,33,32.00
2013,02,01,09,34,32.00
2013,02,01,09,35,32.00
2013,02,01,09,36,32.00
2013,02,01,09,37,32.00
2013,02,01,09,38,32.00
2013,02,01,09,39,30.60
2013,02,01,09,40,31.70
2013,02,01,09,41,32.00
2013,02,01,09,42,32.00
2013,02,01,09,43,31.20
2013,02,01,09,44,30.00
2013,02,01,09,45,30.00
2013,02,01,09,46,28.20
2013,02,01,09,47,28.00
2013,02,01,09,48,28.60
2013,02,01,09,49,30.00
2013,02,01,09,50,31.20
2013,02,01,09,51,32.00
2013,02,01,09,52,32.00
2013,02,01,09,53,31.60
2013,02,01,09,54,30.00
2013,02,01,09,55,30.00
2013,02,01,09,56,31.30
2013,02,01,09,57,32.80
2013,02,01,09,58,33.00
2013,02,01,09,59,32.80
2013,02,01,10,00,32.00
2013,02,01,10,01,32.00
2013,02,01,10,02,32.70
2013,02,01,10,03,34.60
2013,02,01,10,04,35.10
2013,02,01,10,05,37.50
2013,02,01,10,06,39.00
2013,02,01,10,07,39.00
2013,02,01,10,08,39.00
2013,02,01,10,09,39.00
2013,02,01,10,10,39.10
2013,02,01,10,11,40.50
2013,02,01,10,12,42.00
2013,02,01,10,13,40.40
2013,02,01,10,14,39.00
2013,02,01,10,15,39.80
2013,02,01,10,16,40.20
2013,02,01,10,17,42.00
2013,02,01,10,18,42.90
2013,02,01,10,19,45.70
2013,02,01,10,20,47.00
2013,02,01,10,21,47.00
2013,02,01,10,22,46.80
2013,02,01,10,23,45.40
2013,02,01,10,24,44.00
2013,02,01,10,25,44.00
2013,02,01,10,26,44.00
2013,02,01,10,27,42.20
2013,02,01,10,28,44.00
2013,02,01,10,29,44.00
2013,02,01,10,30,44.00
2013,02,01,10,31,44.00
2013,02,01,10,32,44.00
2013,02,01,10,33,45.80
2013,02,01,10,34,46.80
2013,02,01,10,35,46.00
2013,02,01,10,36,46.00
2013,02,01,10,37,46.70
2013,02,01,10,38,48.60
2013,02,01,10,39,50.80
2013,02,01,10,40,51.60
2013,02,01,10,41,54.00
2013,02,01,10,42,54.00
2013,02,01,10,43,56.50
2013,02,01,10,44,61.20
2013,02,01,10,45,63.20
2013,02,01,10,46,67.50
2013,02,01,10,47,69.30
2013,02,01,10,48,72.00
2013,02,01,10,49,75.40
2013,02,01,10,50,76.80
2013,02,01,10,51,78.90
2013,02,01,10,52,79.50
2013,02,01,10,53,81.80
2013,02,01,10,54,83.00
2013,02,01,10,55,83.00
2013,02,01,10,56,83.80
2013,02,01,10,57,84.40
2013,02,01,10,58,88.50
2013,02,01,10,59,91.30
2013,02,01,11,00,95.40
2013,02,01,11,01,97.70
2013,02,01,11,02,99.70
2013,02,01,11,03,100.00
2013,02,01,11,04,100.00
2013,02,01,11,05,100.00
2013,02,01,11,06,101.20
2013,02,01,11,07,102.00
2013,02,01,11,08,103.80
2013,02,01,11,09,105.00
2013,02,01,11,10,105.00
2013,02,01,11,11,105.00
2013,02,01,11,12,105.00
2013,02,01,11,13,113.10
2013,02,01,11,14,114.20
2013,02,01,11,15,114.00
2013,02,01,11,16,115.90
2013,02,01,11,17,122.20
2013,02,01,11,18,128.20
2013,02,01,11,19,130.00
2013,02,01,11,20,131.80
2013,02,01,11,21,132.40
2013,02,01,11,22,134.00
2013,02,01,11,23,133.00
2013,02,01,11,24,127.60
2013,02,01,11,25,119.40
2013,02,01,11,26,109.40
2013,02,01,11,27,103.50
2013,02,01,11,28,101.30
2013,02,01,11,29,100.00
2013,02,01,11,30,98.70
2013,02,01,11,31,98.00
2013,02,01,11,32,97.10
2013,02,01,11,33,97.00
2013,02,01,11,34,99.00
2013,02,01,11,35,105.80
2013,02,01,11,36,113.80
2013,02,01,11,37,119.20
2013,02,01,11,38,127.40
2013,02,01,11,39,136.80
2013,02,01,11,40,143.80
2013,02,01,11,41,148.90
2013,02,01,11,42,154.50
2013,02,01,11,43,161.90
2013,02,01,11,44,171.00
2013,02,01,11,45,169.90
2013,02,01,11,46,167.00
2013,02,01,11,47,164.60
2013,02,01,11,48,162.30
2013,02,01,11,49,166.20
2013,02,01,11,50,178.90
2013,02,01,11,51,196.50
2013,02,01,11,52,200.90
2013,02,01,11,53,202.00
2013,02,01,11,54,182.50
2013,02,01,11,55,190.40
2013,02,01,11,56,208.80
2013,02,01,11,57,276.00
2013,02,01,11,58,276.00
2013,02,01,11,59,276.00
2013,02,01,12,00,276.00
2013,02,01,12,01,187.40
2013,02,01,12,02,170.20
2013,02,01,12,03,165.60
2013,02,01,12,04,160.50
2013,02,01,12,05,158.00
2013,02,01,12,06,166.70
2013,02,01,12,07,177.00
2013,02,01,12,08,174.20
2013,02,01,12,09,167.50
2013,02,01,12,10,160.00
2013,02,01,12,11,144.60
2013,02,01,12,12,130.20
2013,02,01,12,13,134.20
2013,02,01,12,14,139.00
2013,02,01,12,15,140.10
2013,02,01,12,16,140.40
2013,02,01,12,17,135.50
2013,02,01,12,18,134.90
2013,02,01,12,19,134.70
2013,02,01,12,20,134.00
2013,02,01,12,21,137.30
2013,02,01,12,22,135.00
2013,02,01,12,23,128.00
2013,02,01,12,24,121.40
2013,02,01,12,25,120.00
2013,02,01,12,26,120.00
2013,02,01,12,27,118.30
2013,02,01,12,28,114.80
2013,02,01,12,29,113.30
2013,02,01,12,30,115.60
2013,02,01,12,31,118.70
2013,02,01,12,32,133.10
2013,02,01,12,33,141.20
2013,02,01,12,34,144.00
2013,02,01,12,35,140.20
2013,02,01,12,36,131.40
2013,02,01,12,37,125.80
2013,02,01,12,38,107.40
2013,02,01,12,39,105.30
2013,02,01,12,40,109.50
2013,02,01,12,41,105.50
2013,02,01,12,42,95.70
2013,02,01,12,43,89.60
2013,02,01,12,44,86.60
2013,02,01,12,45,84.00
2013,02,01,12,46,84.00
2013,02,01,12,47,84.00
2013,02,01,12,48,72.60
2013,02,01,12,49,71.50
2013,02,01,12,50,70.00
2013,02,01,12,51,71.10
2013,02,01,12,52,73.30
2013,02,01,12,53,71.00
2013,02,01,12,54,65.10
2013,02,01,12,55,62.80
2013,02,01,12,56,62.00
2013,02,01,12,57,60.90
2013,02,01,12,58,58.70
2013,02,01,12,59,59.70
2013,02,01,13,00,62.80
2013,02,01,13,01,67.80
2013,02,01,13,02,70.80
2013,02,01,13,03,73.10
2013,02,01,13,04,72.60
2013,02,01,13,05,72.00
2013,02,01,13,06,70.00
2013,02,01,13,07,69.10
2013,02,01,13,08,67.90
2013,02,01,13,09,69.00
2013,02,01,13,10,66.20
2013,02,01,13,11,63.20
2013,02,01,13,12,65.80
2013,02,01,13,13,72.40
2013,02,01,13,14,79.80
2013,02,01,13,15,83.00
2013,02,01,13,16,92.00
2013,02,01,13,17,95.00
2013,02,01,13,18,89.70
2013,02,01,13,19,86.50
2013,02,01,13,20,83.00
2013,02,01,13,21,79.10
2013,02,01,13,22,73.20
2013,02,01,13,23,69.20
2013,02,01,13,24,66.60
2013,02,01,13,25,65.00
2013,02,01,13,26,65.00
2013,02,01,13,27,65.00
2013,02,01,13,28,66.60
2013,02,01,13,29,65.00
2013,02,01,13,30,62.80
2013,02,01,13,31,62.00
2013,02,01,13,32,62.00
2013,02,01,13,33,64.00
2013,02,01,13,34,66.60
2013,02,01,13,35,67.30
2013,02,01,13,36,71.30
2013,02,01,13,37,77.20
2013,02,01,13,38,77.90
2013,02,01,13,39,73.60
2013,02,01,13,40,69.60
2013,02,01,13,41,65.00
2013,02,01,13,42,64.20
2013,02,01,13,43,60.20
2013,02,01,13,44,56.80
2013,02,01,13,45,58.80
2013,02,01,13,46,62.50
2013,02,01,13,47,63.00
2013,02,01,13,48,63.00
2013,02,01,13,49,64.60
2013,02,01,13,50,68.10
2013,02,01,13,51,69.00
2013,02,01,13,52,67.30
2013,02,01,13,53,64.60
2013,02,01,13,54,63.00
2013,02,01,13,55,63.90
2013,02,01,13,56,65.00
2013,02,01,13,57,65.00
2013,02,01,13,58,63.00
2013,02,01,13,59,59.70
2013,02,01,14,00,57.40
2013,02,01,14,01,56.00
2013,02,01,14,02,56.00
2013,02,01,14,03,56.00
2013,02,01,14,04,55.90
2013,02,01,14,05,54.00
2013,02,01,14,06,53.70
2013,02,01,14,07,53.00
2013,02,01,14,08,51.70
2013,02,01,14,09,51.00
2013,02,01,14,10,51.00
2013,02,01,14,11,51.40
2013,02,01,14,12,53.00
2013,02,01,14,13,53.00
2013,02,01,14,14,53.70
2013,02,01,14,15,54.00
2013,02,01,14,16,54.20
2013,02,01,14,17,57.50
2013,02,01,14,18,68.00
2013,02,01,14,19,80.30
2013,02,01,14,20,75.50
2013,02,01,14,21,68.00
2013,02,01,14,22,62.90
2013,02,01,14,23,61.50
2013,02,01,14,24,59.20
2013,02,01,14,25,59.10
2013,02,01,14,26,60.00
2013,02,01,14,27,50.20
2013,02,01,14,28,44.00
2013,02,01,14,29,44.50
2013,02,01,14,30,46.40
2013,02,01,14,31,50.40
2013,02,01,14,32,59.60
2013,02,01,14,33,68.80
2013,02,01,14,34,71.40
2013,02,01,14,35,80.50
2013,02,01,14,36,84.00
2013,02,01,14,37,84.00
2013,02,01,14,38,84.00
2013,02,01,14,39,84.10
2013,02,01,14,40,86.40
2013,02,01,14,41,88.90
2013,02,01,14,42,92.80
2013,02,01,14,43,95.00
2013,02,01,14,44,96.50
2013,02,01,14,45,95.00
2013,02,01,14,46,92.60
2013,02,01,14,47,91.00
2013,02,01,14,48,90.50
2013,02,01,14,49,90.00
2013,02,01,14,50,90.00
2013,02,01,14,51,88.10
2013,02,01,14,52,86.40
2013,02,01,14,53,88.80
2013,02,01,14,54,92.60
2013,02,01,14,55,98.20
2013,02,01,14,56,100.00
2013,02,01,14,57,100.00
2013,02,01,14,58,100.00
2013,02,01,14,59,99.20
2013,02,01,15,00,96.40
2013,02,01,15,01,95.00
2013,02,01,15,02,96.60
2013,02,01,15,03,98.20
2013,02,01,15,04,101.10
2013,02,01,15,05,104.40
2013,02,01,15,06,105.00
2013,02,01,15,07,105.00
2013,02,01,15,08,104.20
2013,02,01,15,09,101.70
2013,02,01,15,10,99.40
2013,02,01,15,11,97.60
2013,02,01,15,12,95.90
2013,02,01,15,13,95.00
2013,02,01,15,14,95.00
2013,02,01,15,15,89.40
2013,02,01,15,16,86.00
2013,02,01,15,17,86.00
2013,02,01,15,18,84.80
2013,02,01,15,19,81.80
2013,02,01,15,20,81.00
2013,02,01,15,21,81.60
2013,02,01,15,22,84.00
2013,02,01,15,23,84.00
2013,02,01,15,24,84.00
2013,02,01,15,25,81.80
2013,02,01,15,26,79.20
2013,02,01,15,27,78.60
2013,02,01,15,28,77.70
2013,02,01,15,29,79.00
2013,02,01,15,30,77.10
2013,02,01,15,31,76.00
2013,02,01,15,32,78.80
2013,02,01,15,33,81.60
2013,02,01,15,34,86.40
2013,02,01,15,35,92.00
2013,02,01,15,36,95.60
2013,02,01,15,37,99.40
2013,02,01,15,38,102.60
2013,02,01,15,39,109.50
2013,02,01,15,40,111.00
2013,02,01,15,41,120.30
2013,02,01,15,42,125.90
2013,02,01,15,43,127.50
2013,02,01,15,44,126.70
2013,02,01,15,45,122.40
2013,02,01,15,46,119.70
2013,02,01,15,47,116.00
2013,02,01,15,48,109.10
2013,02,01,15,49,104.40
2013,02,01,15,50,98.00
2013,02,01,15,51,97.80
2013,02,01,15,52,95.40
2013,02,01,15,53,91.90
2013,02,01,15,54,86.10
2013,02,01,15,55,81.20
2013,02,01,15,56,76.80
2013,02,01,15,57,74.80
2013,02,01,15,58,70.70
2013,02,01,15,59,67.80
2013,02,01,16,00,65.50
2013,02,01,16,01,65.00
2013,02,01,16,02,63.00
2013,02,01,16,03,62.70
2013,02,01,16,04,62.00
2013,02,01,16,05,60.70
2013,02,01,16,06,60.00
2013,02,01,16,07,59.90
2013,02,01,16,08,58.00
2013,02,01,16,09,57.30
2013,02,01,16,10,56.00
2013,02,01,16,11,54.70
2013,02,01,16,12,53.20
2013,02,01,16,13,52.80
2013,02,01,16,14,50.50
2013,02,01,16,15,49.00
2013,02,01,16,16,48.00
2013,02,01,16,17,46.30
2013,02,01,16,18,44.40
2013,02,01,16,19,43.80
2013,02,01,16,20,42.00
2013,02,01,16,21,41.20
2013,02,01,16,22,40.00
2013,02,01,16,23,39.30
2013,02,01,16,24,39.00
2013,02,01,16,25,38.70
2013,02,01,16,26,37.00
2013,02,01,16,27,37.00
2013,02,01,16,28,35.90
2013,02,01,16,29,35.00
2013,02,01,16,30,35.00
2013,02,01,16,31,33.00
2013,02,01,16,32,33.00
2013,02,01,16,33,32.60
2013,02,01,16,34,32.00
2013,02,01,16,35,32.00
2013,02,01,16,36,30.30
2013,02,01,16,37,29.70
2013,02,01,16,38,28.00
2013,02,01,16,39,27.10
2013,02,01,16,40,26.00
2013,02,01,16,41,26.00
2013,02,01,16,42,25.10
2013,02,01,16,43,24.60
2013,02,01,16,44,23.00
2013,02,01,16,45,22.10
2013,02,01,16,46,21.00
2013,02,01,16,47,21.00
2013,02,01,16,48,19.20
2013,02,01,16,49,19.00
2013,02,01,16,50,19.00
2013,02,01,16,51,18.50
2013,02,01,16,52,18.00
2013,02,01,16,53,18.00
2013,02,01,16,54,18.00
2013,02,01,16,55,17.50
2013,02,01,16,56,16.00
2013,02,01,16,57,16.00
2013,02,01,16,58,16.00
2013,02,01,16,59,14.40
2013,02,01,17,00,14.00
2013,02,01,17,01,14.00
2013,02,01,17,02,14.00
2013,02,01,17,03,12.90
2013,02,01,17,04,11.30
2013,02,01,17,05,11.00
2013,02,01,17,06,8.80
2013,02,01,17,07,7.00
2013,02,01,17,08,6.20
2013,02,01,17,09,5.00
2013,02,01,17,10,5.00
2013,02,01,17,11,0.80
2013,02,01,17,12,0.00
2013,02,01,17,13,0.00
2013,02,01,17,14,0.00
2013,02,01,17,15,0.00
2013,02,01,17,16,0.00
2013,02,01,17,17,0.00
2013,02,01,17,18,0.00
2013,02,01,17,19,0.00
2013,02,01,17,20,0.00
2013,02,01,17,21,0.00
2013,02,01,17,22,0.00
2013,02,01,17,23,0.00
2013,02,01,17,24,0.00
2013,02,01,17,25,0.00
2013,02,01,17,26,0.00
2013,02,01,17,27,0.00
2013,02,01,17,28,0.00
2013,02,01,17,29,0.00
2013,02,01,17,30,0.00
2013,02,01,17,31,0.00
2013,02,01,17,32,0.00
2013,02,01,17,33,0.00
2013,02,01,17,34,0.00
2013,02,01,17,35,0.00
2013,02,01,17,36,0.00
2013,02,01,17,37,0.00
2013,02,01,17,38,0.00
2013,02,01,17,39,0.00
2013,02,01,17,40,0.00